Year,Month,Day,Hour,Minute,Value (Times are PST for temperature in C)
2010,03,18,08,12,1.80
2010,03,18,08,13,1.80
2010,03,18,08,14,1.90
2010,03,18,08,15,1.90
2010,03,18,08,16,2.00
2010,03,18,08,17,2.10
2010,03,18,08,18,2.10
2010,03,18,08,19,2.20
2010,03,18,08,20,2.20
2010,03,18,08,21,2.20
2010,03,18,08,22,2.30
2010,03,18,08,23,2.40
2010,03,18,08,24,2.40
2010,03,18,08,25,2.50
2010,03,18,08,26,2.50
2010,03,18,08,27,2.50
2010,03,18,08,28,2.60
2010,03,18,08,29,2.70
2010,03,18,08,30,2.70
2010,03,18,08,31,2.70
2010,03,18,08,32,2.70
2010,03,18,08,33,2.80
2010,03,18,08,34,2.90
2010,03,18,08,35,2.90
2010,03,18,08,36,2.90
2010,03,18,08,37,2.90
2010,03,18,08,38,3.10
2010,03,18,08,39,3.10
2010,03,18,08,40,3.10
2010,03,18,08,41,3.10
2010,03,18,08,42,3.20
2010,03,18,08,43,3.20
2010,03,18,08,44,3.20
2010,03,18,08,45,3.30
2010,03,18,08,46,3.30
2010,03,18,08,47,3.30
2010,03,18,08,48,3.30
2010,03,18,08,49,3.40
2010,03,18,08,50,3.40
2010,03,18,08,51,3.50
2010,03,18,08,52,3.50
2010,03,18,08,53,3.50
2010,03,18,08,54,3.60
2010,03,18,08,55,3.60
2010,03,18,08,56,3.60
2010,03,18,08,57,3.70
2010,03,18,08,58,3.70
2010,03,18,08,59,3.70
2010,03,18,09,00,3.80
2010,03,18,09,01,3.80
2010,03,18,09,02,3.80
2010,03,18,09,03,3.80
2010,03,18,09,04,3.90
2010,03,18,09,05,3.90
2010,03,18,09,06,4.00
2010,03,18,09,07,4.00
2010,03,18,09,08,4.00
2010,03,18,09,09,4.00
2010,03,18,09,10,4.00
2010,03,18,09,11,4.10
2010,03,18,09,12,4.10
2010,03,18,09,13,4.10
2010,03,18,09,14,4.10
2010,03,18,09,15,4.10
2010,03,18,09,16,4.10
2010,03,18,09,17,4.20
2010,03,18,09,18,4.20
2010,03,18,09,19,4.20
2010,03,18,09,20,4.20
2010,03,18,09,21,4.30
2010,03,18,09,22,4.30
2010,03,18,09,23,4.40
2010,03,18,09,24,4.40
2010,03,18,09,25,4.50
2010,03,18,09,26,4.50
2010,03,18,09,27,4.50
2010,03,18,09,28,4.50
2010,03,18,09,29,4.60
2010,03,18,09,30,4.60
2010,03,18,09,31,4.60
2010,03,18,09,32,4.60
2010,03,18,09,33,4.60
2010,03,18,09,34,4.60
2010,03,18,09,35,4.70
2010,03,18,09,36,4.70
2010,03,18,09,37,4.80
2010,03,18,09,38,4.80
2010,03,18,09,39,4.80
2010,03,18,09,40,4.80
2010,03,18,09,41,4.80
2010,03,18,09,42,4.90
2010,03,18,09,43,4.90
2010,03,18,09,44,4.90
2010,03,18,09,45,4.90
2010,03,18,09,46,4.90
2010,03,18,09,47,5.10
2010,03,18,09,48,5.10
2010,03,18,09,49,5.10
2010,03,18,09,50,5.20
2010,03,18,09,51,5.30
2010,03,18,09,52,5.30
2010,03,18,09,53,5.30
2010,03,18,09,54,5.40
2010,03,18,09,55,5.50
2010,03,18,09,56,5.70
2010,03,18,09,57,5.80
2010,03,18,09,58,5.90
2010,03,18,09,59,5.90
2010,03,18,10,00,6.00
2010,03,18,10,01,6.00
2010,03,18,10,02,5.90
2010,03,18,10,03,5.90
2010,03,18,10,04,5.90
2010,03,18,10,05,6.00
2010,03,18,10,06,6.00
2010,03,18,10,07,6.00
2010,03,18,10,08,6.00
2010,03,18,10,09,6.00
2010,03,18,10,10,6.00
2010,03,18,10,11,6.00
2010,03,18,10,12,6.00
2010,03,18,10,13,6.00
2010,03,18,10,14,6.00
2010,03,18,10,15,6.00
2010,03,18,10,16,6.00
2010,03,18,10,17,6.10
2010,03,18,10,18,6.10
2010,03,18,10,19,6.10
2010,03,18,10,20,6.20
2010,03,18,10,21,6.20
2010,03,18,10,22,6.20
2010,03,18,10,23,6.20
2010,03,18,10,24,6.20
2010,03,18,10,25,6.20
2010,03,18,10,26,6.20
2010,03,18,10,27,6.30
2010,03,18,10,28,6.30
2010,03,18,10,29,6.30
2010,03,18,10,30,6.40
2010,03,18,10,31,6.40
2010,03,18,10,32,6.40
2010,03,18,10,33,6.50
2010,03,18,10,34,6.60
2010,03,18,10,35,6.60
2010,03,18,10,36,6.60
2010,03,18,10,37,6.60
2010,03,18,10,38,6.60
2010,03,18,10,39,6.60
2010,03,18,10,40,6.60
2010,03,18,10,41,6.60
2010,03,18,10,42,6.60
2010,03,18,10,43,6.60
2010,03,18,10,44,6.60
2010,03,18,10,45,6.60
2010,03,18,10,46,6.70
2010,03,18,10,47,6.70
2010,03,18,10,48,6.80
2010,03,18,10,49,6.80
2010,03,18,10,50,6.80
2010,03,18,10,51,6.90
2010,03,18,10,52,6.90
2010,03,18,10,53,7.00
2010,03,18,10,54,7.00
2010,03,18,10,55,7.00
2010,03,18,10,56,7.10
2010,03,18,10,57,7.10
2010,03,18,10,58,7.20
2010,03,18,10,59,7.20
2010,03,18,11,00,7.20
2010,03,18,11,01,7.20
2010,03,18,11,02,7.20
2010,03,18,11,03,7.20
2010,03,18,11,04,7.30
2010,03,18,11,05,7.30
2010,03,18,11,06,7.30
2010,03,18,11,07,7.30
2010,03,18,11,08,7.40
2010,03,18,11,09,7.50
2010,03,18,11,10,7.50
2010,03,18,11,11,7.50
2010,03,18,11,12,7.40
2010,03,18,11,13,7.30
2010,03,18,11,14,7.30
2010,03,18,11,15,7.30
2010,03,18,11,16,7.30
2010,03,18,11,17,7.30
2010,03,18,11,18,7.20
2010,03,18,11,19,7.20
2010,03,18,11,20,7.20
2010,03,18,11,21,7.10
2010,03,18,11,22,7.10
2010,03,18,11,23,7.10
2010,03,18,11,24,7.10
2010,03,18,11,25,7.10
2010,03,18,11,26,7.20
2010,03,18,11,27,7.20
2010,03,18,11,28,7.10
2010,03,18,11,29,7.10
2010,03,18,11,30,7.10
2010,03,18,11,31,7.10
2010,03,18,11,32,7.10
2010,03,18,11,33,7.20
2010,03,18,11,34,7.20
2010,03,18,11,35,7.30
2010,03,18,11,36,7.30
2010,03,18,11,37,7.30
2010,03,18,11,38,7.30
2010,03,18,11,39,7.30
2010,03,18,11,40,7.30
2010,03,18,11,41,7.30
2010,03,18,11,42,7.30
2010,03,18,11,43,7.30
2010,03,18,11,44,7.30
2010,03,18,11,45,7.30
2010,03,18,11,46,7.30
2010,03,18,11,47,7.30
2010,03,18,11,48,7.30
2010,03,18,11,49,7.30
2010,03,18,11,50,7.30
2010,03,18,11,51,7.30
2010,03,18,11,52,7.20
2010,03,18,11,53,7.10
2010,03,18,11,54,7.10
2010,03,18,11,55,7.10
2010,03,18,11,56,7.10
2010,03,18,11,57,7.10
2010,03,18,11,58,7.10
2010,03,18,11,59,7.10
2010,03,18,12,00,7.00
2010,03,18,12,01,7.00
2010,03,18,12,02,7.10
2010,03,18,12,03,7.10
2010,03,18,12,04,7.10
2010,03,18,12,05,7.10
2010,03,18,12,06,7.00
2010,03,18,12,07,7.10
2010,03,18,12,08,7.10
2010,03,18,12,09,7.10
2010,03,18,12,10,7.00
2010,03,18,12,11,7.00
2010,03,18,12,12,7.00
2010,03,18,12,13,7.00
2010,03,18,12,14,7.00
2010,03,18,12,15,6.90
2010,03,18,12,16,6.90
2010,03,18,12,17,6.90
2010,03,18,12,18,6.90
2010,03,18,12,19,6.90
2010,03,18,12,20,6.80
2010,03,18,12,21,6.90
2010,03,18,12,22,7.00
2010,03,18,12,23,7.00
2010,03,18,12,24,7.00
2010,03,18,12,25,7.10
2010,03,18,12,26,7.10
2010,03,18,12,27,7.10
2010,03,18,12,28,7.10
2010,03,18,12,29,7.20
2010,03,18,12,30,7.20
2010,03,18,12,31,7.20
2010,03,18,12,32,7.20
2010,03,18,12,33,7.20
2010,03,18,12,34,7.20
2010,03,18,12,35,7.30
2010,03,18,12,36,7.30
2010,03,18,12,37,7.30
2010,03,18,12,38,7.40
2010,03,18,12,39,7.40
2010,03,18,12,40,7.40
2010,03,18,12,41,7.40
2010,03,18,12,42,7.50
2010,03,18,12,43,7.60
2010,03,18,12,44,7.60
2010,03,18,12,45,7.60
2010,03,18,12,46,7.60
2010,03,18,12,47,7.70
2010,03,18,12,48,7.70
2010,03,18,12,49,7.70
2010,03,18,12,50,7.70
2010,03,18,12,51,7.70
2010,03,18,12,52,7.70
2010,03,18,12,53,7.70
2010,03,18,12,54,7.70
2010,03,18,12,55,7.70
2010,03,18,12,56,7.70
2010,03,18,12,57,7.70
2010,03,18,12,58,7.70
2010,03,18,12,59,7.80
2010,03,18,13,00,7.80
2010,03,18,13,01,7.80
2010,03,18,13,02,7.80
2010,03,18,13,03,7.80
2010,03,18,13,04,7.80
2010,03,18,13,05,7.80
2010,03,18,13,06,7.80
2010,03,18,13,07,7.80
2010,03,18,13,08,7.80
2010,03,18,13,09,7.80
2010,03,18,13,10,7.80
2010,03,18,13,11,7.80
2010,03,18,13,12,7.80
2010,03,18,13,13,7.80
2010,03,18,13,14,7.90
2010,03,18,13,15,7.90
2010,03,18,13,16,7.90
2010,03,18,13,17,7.90
2010,03,18,13,18,7.90
2010,03,18,13,19,7.90
2010,03,18,13,20,8.00
2010,03,18,13,21,8.00
2010,03,18,13,22,8.00
2010,03,18,13,23,8.00
2010,03,18,13,24,8.10
2010,03,18,13,25,8.10
2010,03,18,13,26,8.20
2010,03,18,13,27,8.10
2010,03,18,13,28,8.10
2010,03,18,13,29,8.10
2010,03,18,13,30,8.20
2010,03,18,13,31,8.20
2010,03,18,13,32,8.20
2010,03,18,13,33,8.20
2010,03,18,13,34,8.20
2010,03,18,13,35,8.30
2010,03,18,13,36,8.40
2010,03,18,13,37,8.40
2010,03,18,13,38,8.40
2010,03,18,13,39,8.30
2010,03,18,13,40,8.30
2010,03,18,13,41,8.30
2010,03,18,13,42,8.30
2010,03,18,13,43,8.30
2010,03,18,13,44,8.40
2010,03,18,13,45,8.30
2010,03,18,13,46,8.30
2010,03,18,13,47,8.30
2010,03,18,13,48,8.40
2010,03,18,13,49,8.40
2010,03,18,13,50,8.40
2010,03,18,13,51,8.40
2010,03,18,13,52,8.40
2010,03,18,13,53,8.40
2010,03,18,13,54,8.40
2010,03,18,13,55,8.40
2010,03,18,13,56,8.50
2010,03,18,13,57,8.40
2010,03,18,13,58,8.40
2010,03,18,13,59,8.50
2010,03,18,14,00,8.50
2010,03,18,14,01,8.50
2010,03,18,14,02,8.50
2010,03,18,14,03,8.60
2010,03,18,14,04,8.60
2010,03,18,14,05,8.60
2010,03,18,14,06,8.60
2010,03,18,14,07,8.60
2010,03,18,14,08,8.60
2010,03,18,14,09,8.70
2010,03,18,14,10,8.70
2010,03,18,14,11,8.70
2010,03,18,14,12,8.70
2010,03,18,14,13,8.70
2010,03,18,14,14,8.60
2010,03,18,14,15,8.60
2010,03,18,14,16,8.60
2010,03,18,14,17,8.70
2010,03,18,14,18,8.70
2010,03,18,14,19,8.70
2010,03,18,14,20,8.80
2010,03,18,14,21,8.80
2010,03,18,14,22,8.80
2010,03,18,14,23,8.80
2010,03,18,14,24,8.70
2010,03,18,14,25,8.70
2010,03,18,14,26,8.70
2010,03,18,14,27,8.80
2010,03,18,14,28,8.90
2010,03,18,14,29,8.90
2010,03,18,14,30,8.90
2010,03,18,14,31,8.90
2010,03,18,14,32,8.90
2010,03,18,14,33,8.80
2010,03,18,14,34,8.80
2010,03,18,14,35,8.70
2010,03,18,14,36,8.70
2010,03,18,14,37,8.70
2010,03,18,14,38,8.80
2010,03,18,14,39,8.90
2010,03,18,14,40,9.00
2010,03,18,14,41,9.10
2010,03,18,14,42,9.20
2010,03,18,14,43,9.20
2010,03,18,14,44,9.20
2010,03,18,14,45,9.20
2010,03,18,14,46,9.20
2010,03,18,14,47,9.20
2010,03,18,14,48,9.10
2010,03,18,14,49,9.10
2010,03,18,14,50,9.10
2010,03,18,14,51,9.00
2010,03,18,14,52,9.00
2010,03,18,14,53,9.00
2010,03,18,14,54,9.10
2010,03,18,14,55,9.10
2010,03,18,14,56,9.10
2010,03,18,14,57,9.10
2010,03,18,14,58,9.00
2010,03,18,14,59,9.00
2010,03,18,15,00,8.90
2010,03,18,15,01,8.90
2010,03,18,15,02,8.90
2010,03,18,15,03,9.00
2010,03,18,15,04,9.10
2010,03,18,15,05,9.20
2010,03,18,15,06,9.20
2010,03,18,15,07,9.20
2010,03,18,15,08,9.20
2010,03,18,15,09,9.20
2010,03,18,15,10,9.20
2010,03,18,15,11,9.20
2010,03,18,15,12,9.20
2010,03,18,15,13,9.20
2010,03,18,15,14,9.20
2010,03,18,15,15,9.20
2010,03,18,15,16,9.20
2010,03,18,15,17,9.20
2010,03,18,15,18,9.20
2010,03,18,15,19,9.20
2010,03,18,15,20,9.30
2010,03,18,15,21,9.30
2010,03,18,15,22,9.30
2010,03,18,15,23,9.30
2010,03,18,15,24,9.30
2010,03,18,15,25,9.30
2010,03,18,15,26,9.30
2010,03,18,15,27,9.20
2010,03,18,15,28,9.20
2010,03,18,15,29,9.20
2010,03,18,15,30,9.20
2010,03,18,15,31,9.20
2010,03,18,15,32,9.20
2010,03,18,15,33,9.20
2010,03,18,15,34,9.20
2010,03,18,15,35,9.30
2010,03,18,15,36,9.30
2010,03,18,15,37,9.40
2010,03,18,15,38,9.50
2010,03,18,15,39,9.50
2010,03,18,15,40,9.50
2010,03,18,15,41,9.60
2010,03,18,15,42,9.70
2010,03,18,15,43,9.70
2010,03,18,15,44,9.70
2010,03,18,15,45,9.70
2010,03,18,15,46,9.70
2010,03,18,15,47,9.80
2010,03,18,15,48,9.80
2010,03,18,15,49,9.70
2010,03,18,15,50,9.70
2010,03,18,15,51,9.70
2010,03,18,15,52,9.70
2010,03,18,15,53,9.70
2010,03,18,15,54,9.70
2010,03,18,15,55,9.80
2010,03,18,15,56,9.80
2010,03,18,15,57,9.90
2010,03,18,15,58,9.90
2010,03,18,15,59,9.90
2010,03,18,16,00,9.90
2010,03,18,16,01,9.90
2010,03,18,16,02,9.90
2010,03,18,16,03,9.90
2010,03,18,16,04,9.90
2010,03,18,16,05,9.90
2010,03,18,16,06,9.90
2010,03,18,16,07,9.90
2010,03,18,16,08,10.10
2010,03,18,16,09,10.10
2010,03,18,16,10,10.10
2010,03,18,16,11,10.20
2010,03,18,16,12,10.20
2010,03,18,16,13,10.30
2010,03,18,16,14,10.40
2010,03,18,16,15,10.50
2010,03,18,16,16,10.60
2010,03,18,16,17,10.60
2010,03,18,16,18,10.60
2010,03,18,16,19,10.60
2010,03,18,16,20,10.70
2010,03,18,16,21,10.70
2010,03,18,16,22,10.60
2010,03,18,16,23,10.60
2010,03,18,16,24,10.60
2010,03,18,16,25,10.60
2010,03,18,16,26,10.60
2010,03,18,16,27,10.60
2010,03,18,16,28,10.60
2010,03,18,16,29,10.60
2010,03,18,16,30,10.60
2010,03,18,16,31,10.60
2010,03,18,16,32,10.60
2010,03,18,16,33,10.60
2010,03,18,16,34,10.60
2010,03,18,16,35,10.60
2010,03,18,16,36,10.60
2010,03,18,16,37,10.60
2010,03,18,16,38,10.60
2010,03,18,16,39,10.60
2010,03,18,16,40,10.60
2010,03,18,16,41,10.50
2010,03,18,16,42,10.40
2010,03,18,16,43,10.40
2010,03,18,16,44,10.40
2010,03,18,16,45,10.40
2010,03,18,16,46,10.40
2010,03,18,16,47,10.40
2010,03,18,16,48,10.30
2010,03,18,16,49,10.20
2010,03,18,16,50,10.20
2010,03,18,16,51,10.20
2010,03,18,16,52,10.10
2010,03,18,16,53,10.10
2010,03,18,16,54,10.10
2010,03,18,16,55,10.10
2010,03,18,16,56,10.00
2010,03,18,16,57,9.90
2010,03,18,16,58,9.90
2010,03,18,16,59,9.90
2010,03,18,17,00,9.90
2010,03,18,17,01,9.90
2010,03,18,17,02,9.90
2010,03,18,17,03,9.90
2010,03,18,17,04,9.80
2010,03,18,17,05,9.80
2010,03,18,17,06,9.90
2010,03,18,17,07,9.90
2010,03,18,17,08,9.90
2010,03,18,17,09,9.90
2010,03,18,17,10,9.90
2010,03,18,17,11,9.90
2010,03,18,17,12,9.90
2010,03,18,17,13,9.90
2010,03,18,17,14,9.90
2010,03,18,17,15,9.90
2010,03,18,17,16,9.90
2010,03,18,17,17,9.90
2010,03,18,17,18,9.90
2010,03,18,17,19,9.90
2010,03,18,17,20,9.90
2010,03,18,17,21,9.90
2010,03,18,17,22,10.00
2010,03,18,17,23,10.10
2010,03,18,17,24,10.10
2010,03,18,17,25,10.10
2010,03,18,17,26,10.10
2010,03,18,17,27,10.10
2010,03,18,17,28,10.10
2010,03,18,17,29,10.10
2010,03,18,17,30,10.10
2010,03,18,17,31,10.10
2010,03,18,17,32,10.00
2010,03,18,17,33,9.90
2010,03,18,17,34,9.90
2010,03,18,17,35,9.90
2010,03,18,17,36,9.90
2010,03,18,17,37,9.80
2010,03,18,17,38,9.80
2010,03,18,17,39,9.70
2010,03,18,17,40,9.70
2010,03,18,17,41,9.70
2010,03,18,17,42,9.60
2010,03,18,17,43,9.60
2010,03,18,17,44,9.50
2010,03,18,17,45,9.50
2010,03,18,17,46,9.40
2010,03,18,17,47,9.40
2010,03,18,17,48,9.40
2010,03,18,17,49,9.30
2010,03,18,17,50,9.30
2010,03,18,17,51,9.30
2010,03,18,17,52,9.30
2010,03,18,17,53,9.30
2010,03,18,17,54,9.30
2010,03,18,17,55,9.20
2010,03,18,17,56,9.20
2010,03,18,17,57,9.20
2010,03,18,17,58,9.20
2010,03,18,17,59,9.20
2010,03,18,18,00,9.20
2010,03,18,18,01,9.20
2010,03,18,18,02,9.20
2010,03,18,18,03,9.30
2010,03,18,18,04,9.30
2010,03,18,18,05,9.30
2010,03,18,18,06,9.30
2010,03,18,18,07,9.30
2010,03,18,18,08,9.30
2010,03,18,18,09,9.30
2010,03,18,18,10,9.30
2010,03,18,18,11,9.30
2010,03,18,18,12,9.30
2010,03,18,18,13,9.30
2010,03,18,18,14,9.30
2010,03,18,18,15,9.30
2010,03,18,18,16,9.20
2010,03,18,18,17,9.20
2010,03,18,18,18,9.30
2010,03,18,18,19,9.30
2010,03,18,18,20,9.30
2010,03,18,18,21,9.30
2010,03,18,18,22,9.20
2010,03,18,18,23,9.20
2010,03,18,18,24,9.20
2010,03,18,18,25,9.20
2010,03,18,18,26,9.20
2010,03,18,18,27,9.20
2010,03,18,18,28,9.20
2010,03,18,18,29,9.20
2010,03,18,18,30,9.10
2010,03,18,18,31,9.10
2010,03,18,18,32,9.10
2010,03,18,18,33,9.10
2010,03,18,18,34,9.10
2010,03,18,18,35,9.10
2010,03,18,18,36,9.10
2010,03,18,18,37,9.10
2010,03,18,18,38,9.10
2010,03,18,18,39,9.10
2010,03,18,18,40,9.10
